• în România
  • Lista ţărilor
  • Pe 7 zile
  • Temperatura apei
  • Hartă satelitară
  • Meteo pe hartă
  • Widget-uri
  • user-avatar
    Intrare

    Meteo pe oră la Mayrhofen

    Astăzi, 20 Septembrie, Miercuri

    Timp Temperatura Precipitaţii Vânt Presiune Umiditate
    00:00 -2°C° 0,4 mm 2 m/s 616 mmHg 95%
    01:00 -2°C° 0,4 mm 2 m/s 616 mmHg 95%
    02:00 -2°C° 0,3 mm 2 m/s 616 mmHg 95%
    03:00 -2°C° 0,3 mm 2 m/s 616 mmHg 95%
    04:00 -2°C° 0,3 mm 2 m/s 616 mmHg 95%
    05:00 -2°C° 0,2 mm 2 m/s 616 mmHg 95%
    06:00 -1°C° 0,2 mm 2 m/s 616 mmHg 94%
    07:00 -1°C° 0,2 mm 2 m/s 617 mmHg 94%
    08:00 +1°C° 0,2 mm 2 m/s 617 mmHg 92%
    09:00 +2°C° 0,2 mm 2 m/s 617 mmHg 90%
    10:00 +3°C° 0,2 mm 2 m/s 618 mmHg 88%
    11:00 +3°C° 0,1 mm 2 m/s 618 mmHg 87%
    12:00 +4°C° 0,1 mm 2 m/s 618 mmHg 85%
    13:00 +4°C° 0,1 mm 2 m/s 618 mmHg 84%
    14:00 +4°C° 0 mm 2 m/s 618 mmHg 83%
    15:00 +4°C° 0 mm 2 m/s 618 mmHg 82%
    16:00 +4°C° 0 mm 2 m/s 618 mmHg 81%
    17:00 +3°C° 0 mm 2 m/s 618 mmHg 85%
    18:00 +1°C° 0 mm 2 m/s 617 mmHg 89%
    19:00 +1°C° 0 mm 1 m/s 617 mmHg 93%
    20:00 0°C° 0 mm 1 m/s 617 mmHg 94%
    21:00 -2°C° 0 mm 2 m/s 618 mmHg 94%
    22:00 -2°C° 0 mm 2 m/s 618 mmHg 94%
    23:00 -3°C° 0 mm 2 m/s 618 mmHg 94%

    Mâine, 21 Septembrie, Joi

    Timp Temperatura Precipitaţii Vânt Presiune Umiditate
    00:00 -1°C° 0 mm 1 m/s 618 mmHg 93%
    01:00 -2°C° 0 mm 1 m/s 618 mmHg 92%
    02:00 -2°C° 0 mm 1 m/s 617 mmHg 91%
    03:00 -2°C° 0 mm 1 m/s 617 mmHg 89%
    04:00 -3°C° 0 mm 1 m/s 617 mmHg 87%
    05:00 -2°C° 0 mm 1 m/s 617 mmHg 84%
    06:00 -1°C° 0 mm 1 m/s 617 mmHg 82%
    07:00 -1°C° 0 mm 1 m/s 618 mmHg 79%
    08:00 +2°C° 0 mm 1 m/s 618 mmHg 75%
    09:00 +5°C° 0 mm 1 m/s 619 mmHg 72%
    10:00 +8°C° 0 mm 1 m/s 620 mmHg 68%
    11:00 +8°C° 0 mm 1 m/s 620 mmHg 67%
    12:00 +9°C° 0 mm 1 m/s 620 mmHg 65%
    13:00 +10°C° 0 mm 1 m/s 620 mmHg 64%
    14:00 +10°C° 0 mm 1 m/s 620 mmHg 65%
    15:00 +10°C° 0 mm 1 m/s 619 mmHg 66%
    16:00 +10°C° 0 mm 1 m/s 619 mmHg 68%
    17:00 +7°C° 0 mm 1 m/s 618 mmHg 73%
    18:00 +5°C° 0 mm 1 m/s 618 mmHg 78%
    19:00 +2°C° 0 mm 1 m/s 617 mmHg 83%
    20:00 +2°C° 0 mm 1 m/s 617 mmHg 82%
    21:00 +2°C° 0 mm 1 m/s 617 mmHg 81%
    22:00 +2°C° 0 mm 1 m/s 618 mmHg 80%
    23:00 +2°C° 0 mm 1 m/s 618 mmHg 78%

    Poimâine, 22 Septembrie, Vineri

    Timp Temperatura Precipitaţii Vânt Presiune Umiditate
    00:00 +2°C° 0 mm 1 m/s 618 mmHg 76%
    01:00 +2°C° 0 mm 1 m/s 618 mmHg 74%
    02:00 +2°C° 0 mm 1 m/s 618 mmHg 74%
    03:00 +2°C° 0 mm 1 m/s 618 mmHg 73%
    04:00 +2°C° 0 mm 1 m/s 618 mmHg 72%
    05:00 +2°C° 0 mm 1 m/s 618 mmHg 72%
    06:00 +3°C° 0 mm 1 m/s 618 mmHg 71%
    07:00 +3°C° 0 mm 1 m/s 619 mmHg 70%
    08:00 +6°C° 0 mm 1 m/s 620 mmHg 68%
    09:00 +9°C° 0 mm 1 m/s 621 mmHg 66%
    10:00 +11°C° 0 mm 1 m/s 622 mmHg 64%
    11:00 +12°C° 0 mm 1 m/s 622 mmHg 62%
    12:00 +13°C° 0 mm 1 m/s 622 mmHg 61%
    13:00 +13°C° 0 mm 1 m/s 622 mmHg 59%
    14:00 +13°C° 0 mm 1 m/s 622 mmHg 61%
    15:00 +12°C° 0 mm 1 m/s 622 mmHg 63%
    16:00 +12°C° 0 mm 2 m/s 622 mmHg 65%
    17:00 +10°C° 0 mm 1 m/s 621 mmHg 72%
    18:00 +7°C° 0 mm 1 m/s 620 mmHg 80%
    19:00 +5°C° 0 mm 1 m/s 620 mmHg 87%
    20:00 +4°C° 0 mm 1 m/s 620 mmHg 87%
    21:00 +4°C° 0 mm 1 m/s 620 mmHg 88%
    22:00 +3°C° 0 mm 1 m/s 620 mmHg 89%
    23:00 +3°C° 0 mm 1 m/s 620 mmHg 88%

    23 Septembrie, Sâmbătă

    Timp Temperatura Precipitaţii Vânt Presiune Umiditate
    00:00 +3°C° 0 mm 1 m/s 620 mmHg 88%
    01:00 +3°C° 0 mm 1 m/s 620 mmHg 87%
    02:00 +3°C° 0 mm 1 m/s 620 mmHg 86%
    03:00 +3°C° 0 mm 1 m/s 620 mmHg 86%
    04:00 +3°C° 0 mm 1 m/s 620 mmHg 85%
    05:00 +3°C° 0 mm 1 m/s 620 mmHg 83%
    06:00 +4°C° 0 mm 1 m/s 620 mmHg 82%
    07:00 +4°C° 0 mm 1 m/s 621 mmHg 80%
    08:00 +7°C° 0 mm 1 m/s 622 mmHg 74%
    09:00 +8°C° 0 mm 0 m/s 622 mmHg 69%
    10:00 +11°C° 0 mm 0 m/s 623 mmHg 63%
    11:00 +11°C° 0 mm 0 m/s 623 mmHg 61%
    12:00 +13°C° 0 mm 1 m/s 623 mmHg 60%
    13:00 +13°C° 0 mm 1 m/s 623 mmHg 58%
    14:00 +13°C° 0,1 mm 1 m/s 623 mmHg 61%
    15:00 +13°C° 0,1 mm 1 m/s 623 mmHg 63%
    16:00 +12°C° 0,1 mm 1 m/s 622 mmHg 66%
    17:00 +10°C° 0,2 mm 1 m/s 622 mmHg 73%
    18:00 +8°C° 0,2 mm 1 m/s 621 mmHg 80%
    19:00 +4°C° 0,2 mm 0 m/s 620 mmHg 88%
    20:00 +4°C° 0 mm 0 m/s 620 mmHg 88%
    21:00 +4°C° 0 mm 1 m/s 620 mmHg 89%
    22:00 +4°C° 0 mm 1 m/s 620 mmHg 89%
    23:00 +4°C° 0 mm 1 m/s 620 mmHg 88%

    24 Septembrie, Duminică

    Timp Temperatura Precipitaţii Vânt Presiune Umiditate
    00:00 +4°C° 0 mm 1 m/s 620 mmHg 88%
    01:00 +4°C° 0 mm 1 m/s 619 mmHg 87%
    02:00 +3°C° 0 mm 1 m/s 619 mmHg 87%
    03:00 +3°C° 0 mm 1 m/s 619 mmHg 87%
    04:00 +3°C° 0 mm 1 m/s 619 mmHg 87%
    05:00 +4°C° 0 mm 1 m/s 619 mmHg 86%
    06:00 +4°C° 0 mm 1 m/s 620 mmHg 85%
    07:00 +4°C° 0 mm 1 m/s 620 mmHg 85%
    08:00 +7°C° 0 mm 1 m/s 621 mmHg 78%
    09:00 +9°C° 0 mm 1 m/s 622 mmHg 72%
    10:00 +12°C° 0 mm 1 m/s 623 mmHg 66%
    11:00 +12°C° 0 mm 1 m/s 623 mmHg 63%
    12:00 +13°C° 0 mm 1 m/s 623 mmHg 61%
    13:00 +14°C° 0 mm 1 m/s 623 mmHg 59%
    14:00 +13°C° 0 mm 2 m/s 623 mmHg 62%
    15:00 +13°C° 0 mm 2 m/s 622 mmHg 65%
    16:00 +12°C° 0 mm 2 m/s 622 mmHg 67%
    17:00 +9°C° 0,1 mm 2 m/s 622 mmHg 75%
    18:00 +8°C° 0,1 mm 1 m/s 621 mmHg 83%
    19:00 +6°C° 0,1 mm 1 m/s 621 mmHg 91%
    20:00 +6°C° 0 mm 1 m/s 621 mmHg 92%
    21:00 +5°C° 0 mm 1 m/s 621 mmHg 93%
    22:00 +5°C° 0 mm 1 m/s 621 mmHg 94%
    23:00 +5°C° 0 mm 1 m/s 621 mmHg 94%

    25 Septembrie, Luni

    Timp Temperatura Precipitaţii Vânt Presiune Umiditate
    00:00 +4°C° 0 mm 1 m/s 621 mmHg 94%
    01:00 +4°C° 0 mm 1 m/s 620 mmHg 95%
    02:00 +3°C° 0 mm 1 m/s 620 mmHg 94%
    03:00 +3°C° 0 mm 1 m/s 620 mmHg 93%
    04:00 +2°C° 0 mm 1 m/s 620 mmHg 93%
    05:00 +3°C° 0 mm 1 m/s 620 mmHg 90%
    06:00 +3°C° 0 mm 1 m/s 620 mmHg 87%
    07:00 +3°C° 0 mm 1 m/s 620 mmHg 84%
    08:00 +6°C° 0 mm 1 m/s 621 mmHg 77%
    09:00 +8°C° 0 mm 1 m/s 622 mmHg 69%
    10:00 +11°C° 0 mm 1 m/s 623 mmHg 61%
    11:00 +12°C° 0 mm 1 m/s 623 mmHg 58%
    12:00 +13°C° 0 mm 1 m/s 623 mmHg 55%
    13:00 +14°C° 0 mm 1 m/s 623 mmHg 51%
    14:00 +13°C° 0 mm 1 m/s 623 mmHg 53%
    15:00 +13°C° 0 mm 2 m/s 622 mmHg 55%
    16:00 +12°C° 0 mm 2 m/s 622 mmHg 58%
    17:00 +10°C° 0 mm 1 m/s 621 mmHg 67%
    18:00 +7°C° 0 mm 1 m/s 620 mmHg 76%
    19:00 +4°C° 0 mm 1 m/s 619 mmHg 86%
    20:00 +4°C° 0 mm 1 m/s 619 mmHg 87%
    21:00 +4°C° 0 mm 1 m/s 619 mmHg 87%
    22:00 +4°C° 0 mm 1 m/s 619 mmHg 88%
    23:00 +4°C° 0 mm 1 m/s 619 mmHg 87%
    Arată mai mult